GFSFLT2_500_rhum_159.txt.gz
RH
26 26 26 26 26 28 29 34 39 40 40 38 45 39 37 31 31 27 26 29 52 69 53 43 43 62 53 27 14 13 18 23
26 27 28 29 31 34 38 47 55 54 46 44 42 43 34 37 47 48 43 49 49 48 48 59 57 45 62 73 61 26 18 19
34 34 36 37 38 41 46 53 54 55 44 37 34 42 46 45 45 42 49 50 51 46 45 45 45 43 41 33 33 58 47 29
48 46 45 44 44 38 23 22 32 28 21 11 10 16 16 10 9 8 9 11 10 9 10 22 24 47 55 51 46 32 44 70
53 49 48 46 46 29 9 8 9 9 9 9 9 8 8 8 8 9 11 12 12 12 12 12 9 10 21 51 43 50 57 55
43 48 47 46 45 10 10 8 9 8 8 9 10 10 10 11 12 13 12 12 12 10 10 11 12 14 14 10 17 53 39 58
44 29 23 23 10 11 9 8 8 8 8 8 8 8 8 8 9 9 10 11 11 10 9 9 10 10 10 12 14 14 20 23
36 35 23 13 12 10 8 9 11 11 10 9 9 9 10 9 8 8 8 8 8 9 9 10 10 9 8 8 10 15 15 25
19 16 13 13 13 13 12 12 11 10 9 8 8 8 7 8 9 9 9 8 9 9 9 9 9 9 8 8 8 9 13 14
25 22 21 20 17 12 9 8 7 6 6 5 6 6 7 7 7 8 8 8 7 9 9 8 8 9 10 11 10 8 7 10
7 6 6 6 5 5 5 5 5 5 5 5 5 6 6 6 6 7 7 7 8 9 10 10 10 10 11 13 12 10 8 7
32 25 18 14 13 12 11 11 10 11 11 11 13 12 14 15 16 18 19 20 18 14 13 14 13 13 13 12 11 11 9 8
26 31 36 36 35 34 33 33 33 33 37 37 39 33 25 22 22 22 23 23 24 22 19 17 16 14 14 13 11 9 9 8
35 33 32 30 31 31 31 32 33 33 31 31 30 31 34 35 34 30 27 23 22 22 21 21 18 16 18 16 13 8 8 9
38 38 37 36 34 33 32 32 30 29 27 26 26 27 27 26 27 26 24 24 25 22 22 21 19 19 17 14 11 7 7 8
45 39 34 32 30 29 29 29 28 27 26 25 24 22 22 22 22 24 26 26 26 23 22 22 21 20 16 12 9 8 8 9
31 27 24 25 24 24 25 26 26 26 26 25 25 25 26 26 28 32 30 27 25 24 24 21 17 14 12 12 11 11 11 9
24 26 33 40 45 44 48 55 56 51 48 42 41 39 34 34 32 33 32 27 22 18 16 14 10 7 6 5 4 4 4 4
61 55 71 74 80 78 76 79 79 76 74 71 65 57 50 44 36 26 14 9 8 13 17 19 15 17 19 16 11 9 8 6
53 56 81 99 100 97 94 86 82 76 66 44 35 24 16 18 16 15 18 21 20 21 25 31 32 36 28 26 23 16 16 21

GFSFLT2_500_rhum_165.txt.gz
RH
27 26 25 25 25 26 26 28 31 34 36 40 42 46 57 46 42 48 43 36 41 36 33 34 37 66 58 47 53 61 62 57
32 30 29 29 31 33 36 40 43 45 44 45 36 22 38 31 31 37 41 43 44 51 47 41 50 49 60 62 60 58 48 44
34 34 36 38 40 44 46 46 46 47 47 45 36 11 10 10 9 18 38 40 42 43 44 50 50 53 55 56 48 48 41 39
40 41 43 44 46 49 52 51 50 50 48 45 32 11 9 8 8 9 10 10 10 10 10 15 16 22 28 40 41 37 46 47
40 44 45 45 50 51 51 47 43 49 52 49 27 11 9 9 8 9 9 9 9 8 9 9 8 8 9 8 9 9 11 17
37 46 54 56 55 53 52 46 43 42 25 27 15 12 10 10 9 8 8 8 8 10 11 12 12 12 12 12 11 11 11 12
49 55 58 55 55 52 49 46 43 36 33 25 14 12 9 9 9 9 9 9 9 8 8 8 8 8 8 8 10 10 9 10
40 38 39 41 44 42 37 32 27 24 22 18 15 14 13 9 10 11 11 10 10 9 9 9 10 9 9 9 9 9 9 8
12 13 16 20 23 24 25 28 27 26 25 23 21 19 17 13 12 13 12 12 10 9 7 7 8 8 8 9 9 8 8 9
25 26 26 25 26 26 27 26 23 20 16 12 10 8 7 8 8 8 8 8 7 6 6 5 5 6 6 6 7 7 7 7
27 24 25 22 21 22 22 22 22 23 26 26 27 31 34 34 26 16 9 8 7 7 7 5 5 6 6 6 6 7 8 8
38 38 40 44 44 41 39 37 37 37 36 35 34 33 32 30 31 34 35 34 32 30 29 27 23 24 28 30 26 25 22 21
53 54 56 54 51 51 50 49 47 47 44 40 37 34 32 32 31 30 29 29 33 34 30 28 26 25 24 24 26 26 22 19
63 55 47 47 48 50 51 54 51 41 36 37 39 38 38 37 35 34 32 32 32 30 30 29 28 28 27 26 26 31 29 32
61 64 61 69 68 64 56 45 40 31 24 21 19 20 22 24 25 26 27 27 26 25 25 25 24 23 23 22 21 20 21 23
74 92 99 100 91 84 76 52 52 40 29 23 19 16 14 16 19 21 20 20 20 21 21 20 20 20 20 19 17 15 16 18
93 100 100 94 95 85 64 52 33 26 25 23 21 22 23 33 48 42 29 30 22 18 16 17 17 17 18 19 19 19 18 16
100 98 96 88 69 60 54 41 31 40 57 66 66 65 66 68 65 61 57 53 48 40 33 31 26 21 16 16 17 17 17 19
90 76 62 71 72 53 40 36 39 65 76 76 71 72 74 78 68 48 42 41 39 34 30 28 22 21 22 20 19 17 16 14
73 69 59 54 48 47 44 47 55 66 72 80 76 75 69 88 78 62 62 63 54 43 32 23 21 24 21 16 15 16 16 18

GFSFLT2_500_rhum_168.txt.gz
RH
33 31 31 29 27 27 28 29 30 34 36 38 41 40 41 31 30 44 41 43 44 37 36 46 39 36 34 52 62 56 50 64
33 37 37 34 33 33 34 34 38 42 44 46 46 45 42 28 9 17 23 24 39 36 37 46 52 49 50 47 43 62 64 61
33 36 38 39 42 44 44 46 47 47 49 49 48 48 46 32 9 8 8 9 34 41 44 46 49 54 55 53 59 58 56 50
39 40 45 49 49 48 48 49 50 52 49 43 47 50 48 36 11 9 7 8 8 12 12 12 14 18 28 32 41 46 48 44
44 48 50 46 42 44 48 52 55 55 54 50 45 37 42 41 13 10 8 7 7 7 7 7 7 9 9 9 9 9 9 9
40 40 40 40 41 45 52 56 58 56 56 53 48 43 39 18 13 11 10 9 8 8 8 8 8 8 11 14 14 15 14 13
40 40 40 40 42 50 59 64 62 57 50 44 38 33 29 25 19 14 10 9 8 8 8 8 8 8 8 8 7 8 9 9
31 30 28 26 28 36 39 39 39 38 36 34 31 28 26 24 20 16 15 12 10 10 10 10 10 10 10 9 10 9 9 9
11 13 13 12 12 12 13 13 13 13 14 14 12 12 13 18 20 21 19 17 14 13 12 11 11 10 10 9 8 8 9 9
21 25 24 23 22 23 24 24 25 25 24 23 23 23 25 27 24 18 16 10 9 11 12 12 11 10 9 8 7 7 7 7
42 42 40 36 34 35 36 34 35 36 37 37 38 37 36 36 34 30 27 26 28 30 27 15 6 6 6 5 5 5 5 6
48 45 43 42 44 46 52 55 55 55 55 53 52 50 48 45 42 41 38 34 32 32 32 31 32 30 22 16 16 9 7 6
57 48 54 60 62 61 53 50 55 51 52 55 48 45 41 36 33 31 29 28 29 31 32 32 32 28 29 31 31 31 29 27
53 70 73 66 49 43 50 61 64 56 53 45 35 26 23 23 21 20 20 20 20 22 23 25 28 29 29 29 30 32 31 28
92 87 64 51 62 80 85 84 70 64 67 61 42 32 31 30 28 22 18 14 14 14 17 20 20 23 26 27 28 28 28 28
68 52 56 87 98 94 100 92 86 79 58 46 36 30 26 23 19 17 15 15 14 16 13 10 11 9 12 18 23 24 24 24
81 88 100 100 100 100 99 81 59 56 54 43 32 28 30 34 40 43 40 33 32 39 44 39 32 25 18 14 9 13 16 19
100 100 98 99 97 82 61 46 40 40 38 39 38 39 52 56 63 67 62 52 67 57 48 41 40 35 31 26 25 17 10 10
100 100 99 93 84 63 54 40 40 42 43 36 45 48 57 67 70 64 50 38 77 65 60 62 53 41 32 25 22 21 20 15
100 99 89 85 65 48 35 38 40 35 29 30 35 42 49 54 64 58 29 71 81 85 89 68 57 47 39 34 29 26 19 18

GFSFLT2_500_rhum_171.txt.gz
RH
50 33 35 39 51 47 38 31 31 32 32 35 38 40 39 37 39 38 26 21 33 34 34 37 32 32 29 30 30 37 54 57
31 33 39 39 47 42 38 38 38 40 44 48 48 47 47 45 43 42 28 10 10 14 15 33 31 32 38 40 40 38 41 54
27 48 47 58 46 47 48 48 47 47 48 47 46 50 47 44 44 42 34 10 7 7 7 22 33 38 37 43 47 45 48 59
32 32 32 36 41 41 40 42 43 46 50 52 55 52 45 40 41 45 42 14 10 7 6 9 23 22 24 22 23 42 45 52
29 31 35 40 43 51 53 52 50 55 57 60 58 54 51 47 42 37 36 30 11 9 8 7 6 7 7 6 7 8 8 12
25 29 34 39 44 50 51 54 60 65 65 66 65 61 57 51 46 42 36 27 14 10 9 9 8 7 8 8 8 9 11 12
27 30 33 37 39 41 45 51 54 54 50 46 47 45 41 37 34 33 32 28 25 13 10 10 9 9 8 8 9 9 8 8
17 17 19 22 22 22 25 26 26 25 22 23 23 23 23 24 27 30 31 29 24 20 16 12 9 8 8 8 8 8 8 8
23 24 22 18 15 14 13 14 16 18 20 23 23 22 23 24 24 24 18 13 15 22 24 20 14 11 10 10 11 10 10 10
39 37 35 30 27 26 26 28 27 27 27 26 26 27 27 29 30 29 28 28 26 24 20 15 13 15 15 14 12 13 12 12
46 45 44 43 41 40 43 45 45 46 48 51 55 55 54 52 50 48 47 44 43 42 40 34 29 27 23 17 12 11 12 12
54 58 59 58 56 54 50 48 58 68 66 57 47 44 45 46 47 42 36 31 28 26 24 24 26 32 35 34 30 28 23 10
76 71 63 59 59 56 54 73 71 57 49 46 50 61 57 46 39 34 27 22 20 19 17 15 14 13 14 18 24 30 31 32
88 83 76 63 56 56 71 70 61 53 55 62 70 67 49 47 42 30 25 22 20 18 16 17 16 12 13 12 16 16 20 25
82 70 64 76 80 85 72 71 74 73 84 88 85 71 54 46 38 31 25 20 17 14 13 13 12 12 14 12 12 13 16 18
92 86 86 92 94 98 93 98 96 99 96 67 51 43 43 37 33 25 21 19 22 24 25 26 26 25 16 9 10 11 11 13
98 100 99 100 98 99 97 93 96 94 84 54 37 36 32 30 25 27 34 43 43 40 37 41 36 42 51 42 32 16 9 11
95 98 99 100 100 99 97 94 91 62 44 36 34 32 28 23 21 23 38 42 45 49 36 20 47 59 47 45 48 42 31 15
98 100 100 99 100 99 88 70 67 56 42 40 33 33 28 26 29 32 38 52 57 32 44 70 74 79 77 70 56 44 34 27
54 74 98 100 100 95 70 49 50 51 54 51 42 34 44 46 41 53 70 63 28 28 61 84 94 92 87 78 63 52 38 31

GFSFLT2_500_rhum_174.txt.gz
RH
58 76 82 50 38 64 70 62 51 36 34 34 34 35 38 38 35 32 35 38 37 28 14 21 22 22 33 34 32 31 27 26
57 71 68 73 64 58 57 57 56 37 40 40 41 42 42 40 36 38 37 37 40 38 14 9 11 12 22 31 33 40 41 31
37 41 48 56 61 63 72 50 36 42 42 38 38 39 36 38 44 42 36 32 36 41 22 8 7 7 16 30 35 39 41 44
33 43 37 50 45 40 35 40 44 41 39 40 40 35 37 39 42 42 40 38 35 40 36 11 8 7 8 25 29 28 26 28
33 38 38 26 29 34 39 42 40 35 38 40 44 46 50 52 51 49 47 45 40 36 36 27 10 9 8 8 11 11 10 8
31 32 30 30 30 31 33 35 36 39 40 42 45 49 52 53 53 51 46 43 40 38 36 32 18 11 10 9 7 7 7 8
27 24 24 25 28 30 34 35 34 33 36 40 41 38 31 27 25 24 24 28 30 32 31 32 30 19 11 10 10 10 9 10
17 17 17 18 19 20 22 23 24 23 23 22 18 15 16 17 17 16 16 15 13 11 12 21 29 28 22 14 10 10 10 10
25 26 27 29 30 30 28 24 21 18 20 25 27 27 26 25 25 21 22 20 19 18 19 20 18 14 19 24 20 12 9 9
32 36 38 41 42 43 42 39 37 37 38 41 44 46 47 47 47 46 45 45 44 43 42 40 38 32 26 24 19 18 17 12
36 40 46 50 51 54 58 61 62 61 58 56 51 54 58 58 52 46 42 42 44 45 45 43 39 34 33 33 36 37 26 18
38 49 62 66 67 73 78 80 75 62 56 53 65 70 66 57 51 56 59 57 52 46 43 37 32 30 28 27 24 19 23 33
44 54 64 67 77 85 88 79 68 61 67 74 72 67 59 57 60 63 64 62 57 50 41 33 24 17 17 18 17 16 16 15
62 62 65 70 77 81 78 70 64 71 80 83 76 66 67 76 73 66 53 41 33 29 23 19 15 14 14 10 10 12 13 13
91 91 90 88 83 76 73 69 70 80 91 84 75 80 82 73 62 47 38 34 26 22 19 13 10 8 8 11 14 13 10 10
91 91 86 84 84 88 83 86 98 94 90 96 100 92 78 63 44 35 30 27 20 15 12 16 20 22 24 23 18 17 25 23
99 98 99 99 100 98 99 98 96 98 100 100 92 61 50 43 34 30 24 21 20 20 17 22 30 31 30 12 11 12 35 40
87 87 82 89 93 95 99 99 98 100 85 70 59 54 46 39 34 32 28 24 20 19 24 34 45 19 14 48 46 44 44 55
78 81 86 100 100 99 100 100 100 97 78 53 57 50 51 49 41 31 33 31 29 39 47 23 9 14 27 55 66 65 64 63
67 72 64 39 39 39 59 74 71 61 54 63 63 60 52 51 40 30 39 47 43 17 4 6 12 28 54 69 75 74 73 64